Location: Brahman Valley
(40.6513°N, 111.8855°W)
Time: 12:31:34
(UTC+00:00)

Vanguard 3 - Visible Passes

Search period start: 13 May 2021 00:00
Search period end: 23 May 2021 00:00
Orbit: 508 x 3262 km, 33.3° (Epoch: 12 May)

Date Brightness Start Highest point End Pass type
(mag) Time Alt. Az. Time Alt. Az. Time Alt. Az.
13 May 9.7 03:18:39 10° WSW 03:37:30 66° S 03:49:32 10° ESE visible
13 May 8.9 05:36:21 10° W 05:51:31 51° SSW 05:54:04 44° S visible
13 May 10.3 07:55:21 10° W 07:58:36 15° WSW 07:58:36 15° WSW visible
14 May 9.4 04:18:25 10° W 04:36:13 62° SSW 04:43:54 26° ESE visible
14 May 9.5 06:36:36 10° W 06:48:26 34° SW 06:48:26 34° SW visible
15 May 9.8 03:00:45 10° W 03:20:07 67° S 03:33:10 10° ESE visible
15 May 9.2 05:18:26 10° W 05:34:23 49° SSW 05:38:15 39° SSE visible
15 May 10.3 07:38:02 10° W 07:42:47 17° WSW 07:42:47 17° WSW visible
16 May 9.6 04:00:29 10° W 04:18:55 61° SSW 04:28:03 22° SE visible
16 May 9.6 06:18:51 10° W 06:31:48 33° SW 06:32:34 33° SSW visible
17 May 10.0 02:42:56 10° W 03:02:37 67° S 03:16:37 10° ESE visible
17 May 9.4 05:00:31 10° W 05:17:07 48° SSW 05:22:22 33° SSE visible
17 May 10.3 07:20:45 10° W 07:26:53 17° WSW 07:26:53 17° WSW visible
18 May 9.8 03:42:37 10° W 04:01:30 60° SSW 04:12:09 18° SE visible
18 May 9.7 06:01:05 10° W 06:14:31 31° SW 06:16:41 30° SSW visible
19 May 9.7 04:42:38 10° W 04:59:42 46° SSW 05:06:28 28° SSE visible
19 May 10.4 07:03:32 10° W 07:10:59 16° SW 07:10:59 16° SW visible
20 May 10.0 03:24:49 10° W 03:43:57 58° SSW 03:56:15 15° SE visible
20 May 9.9 05:43:21 10° W 05:57:06 30° SW 06:00:47 26° SSW visible
21 May 9.9 04:24:49 10° W 04:42:10 44° SSW 04:50:35 23° SSE visible
21 May 10.5 06:46:30 10° W 06:53:44 15° SW 06:55:07 15° SW visible
22 May 10.2 03:07:08 10° W 03:26:17 56° SSW 03:40:24 11° SE visible
22 May 10.1 05:25:42 10° W 05:39:33 28° SW 05:44:56 22° SSW visible
